| time (UTC) | temp F | wind direction | speed MPH | gust MPH | rain 1hr in | rain 24hr in | rain mn in | humidity % | barometer mb |
| 20260906123003 | 65 | 294 | 1.0 | 7.0 | 0.00 | 0.08 | 0.01 | 63 | 1018.6 |
| 20260906122503 | 66 | 285 | 1.0 | 7.0 | 0.00 | 0.08 | 0.01 | 63 | 1018.6 |
| 20260906122024 | 66 | 271 | 1.0 | 6.0 | 0.00 | 0.08 | 0.01 | 62 | 1018.6 |
| 20260906121503 | 67 | 294 | 1.0 | 5.0 | 0.00 | 0.08 | 0.01 | 62 | 1018.5 |
| 20260906121003 | 67 | 297 | 1.0 | 4.0 | 0.00 | 0.08 | 0.01 | 62 | 1018.5 |
| 20260906120524 | 67 | 297 | 1.0 | 4.0 | 0.00 | 0.08 | 0.01 | 62 | 1018.5 |
| 20260906120003 | 67 | 309 | 1.0 | 7.0 | 0.00 | 0.08 | 0.01 | 63 | 1018.4 |
| 20260906115503 | 67 | 314 | 1.0 | 7.0 | 0.00 | 0.08 | 0.01 | 62 | 1018.5 |
| 20260906115003 | 67 | 313 | 1.0 | 5.0 | 0.00 | 0.08 | 0.01 | 61 | 1018.4 |
| 20260906114503 | 68 | 312 | 1.0 | 3.0 | 0.00 | 0.08 | 0.01 | 62 | 1018.4 |
| 20260906114003 | 68 | 316 | 1.0 | 6.0 | 0.00 | 0.08 | 0.01 | 62 | 1018.4 |
| 20260906113503 | 67 | 309 | 1.0 | 6.0 | 0.00 | 0.08 | 0.01 | 63 | 1018.3 |
| 20260906113003 | 67 | 299 | 1.0 | 4.0 | 0.00 | 0.08 | 0.01 | 62 | 1018.2 |
| 20260906112503 | 68 | 286 | 0.0 | 4.0 | 0.00 | 0.08 | 0.01 | 62 | 1018.2 |
| 20260906112003 | 68 | 297 | 1.0 | 6.0 | 0.00 | 0.08 | 0.01 | 62 | 1018.0 |
| 20260906111503 | 67 | 298 | 1.0 | 6.0 | 0.00 | 0.08 | 0.01 | 61 | 1017.9 |
| 20260906111024 | 68 | 271 | 1.0 | 5.0 | 0.00 | 0.08 | 0.01 | 62 | 1017.9 |
| 20260906110502 | 68 | 276 | 0.0 | 5.0 | 0.00 | 0.08 | 0.01 | 62 | 1018.0 |
| 20260906110003 | 68 | 340 | 0.0 | 5.0 | 0.00 | 0.08 | 0.01 | 62 | 1017.7 |
| 20260906105503 | 67 | 317 | 0.0 | 5.0 | 0.00 | 0.08 | 0.01 | 61 | 1017.7 |
| 20260906105003 | 67 | 297 | 0.0 | 5.0 | 0.00 | 0.08 | 0.01 | 62 | 1017.6 |
| 20260906104503 | 67 | 296 | 1.0 | 5.0 | 0.00 | 0.08 | 0.01 | 62 | 1017.6 |
| 20260906104003 | 67 | 297 | 1.0 | 5.0 | 0.00 | 0.08 | 0.01 | 62 | 1017.4 |
| 20260906103503 | 67 | 285 | 0.0 | 3.0 | 0.00 | 0.08 | 0.01 | 62 | 1017.4 |
| 20260906103024 | 67 | 305 | 1.0 | 6.0 | 0.00 | 0.08 | 0.01 | 62 | 1017.4 |
| 20260906102503 | 67 | 306 | 1.0 | 6.0 | 0.00 | 0.08 | 0.01 | 62 | 1017.3 |
| 20260906102024 | 67 | 308 | 1.0 | 6.0 | 0.00 | 0.08 | 0.01 | 62 | 1017.3 |
| 20260906101503 | 68 | 315 | 0.0 | 3.0 | 0.00 | 0.08 | 0.01 | 62 | 1017.2 |
| 20260906101003 | 67 | 335 | 0.0 | 3.0 | 0.00 | 0.08 | 0.01 | 62 | 1017.1 |
| 20260906100503 | 67 | 320 | 0.0 | 4.0 | 0.00 | 0.08 | 0.01 | 61 | 1017.2 |
| 20260906100003 | 66 | 314 | 1.0 | 4.0 | 0.00 | 0.08 | 0.01 | 61 | 1017.1 |
| 20260906095524 | 66 | 317 | 1.0 | 4.0 | 0.00 | 0.08 | 0.01 | 62 | 1017.1 |
| 20260906095003 | 66 | 315 | 0.0 | 4.0 | 0.00 | 0.08 | 0.01 | 62 | 1017.0 |
| 20260906094503 | 67 | 281 | 0.0 | 3.0 | 0.00 | 0.08 | 0.01 | 61 | 1017.1 |
| 20260906094024 | 67 | 306 | 0.0 | 3.0 | 0.00 | 0.08 | 0.01 | 61 | 1017.0 |
| 20260906093503 | 66 | 317 | 0.0 | 3.0 | 0.00 | 0.08 | 0.01 | 60 | 1016.9 |
| 20260906093003 | 66 | 316 | 0.0 | 5.0 | 0.00 | 0.08 | 0.01 | 60 | 1016.8 |
| 20260906092503 | 66 | 322 | 1.0 | 5.0 | 0.00 | 0.08 | 0.01 | 59 | 1016.8 |
| 20260906092003 | 66 | 324 | 0.0 | 5.0 | 0.00 | 0.08 | 0.01 | 59 | 1016.7 |
| 20260906091503 | 66 | 178 | 0.0 | 5.0 | 0.00 | 0.08 | 0.01 | 57 | 1016.7 |
| 20260906091024 | 66 | 276 | 0.0 | 4.0 | 0.00 | 0.08 | 0.01 | 58 | 1016.7 |
| 20260906090503 | 65 | 293 | 0.0 | 4.0 | 0.00 | 0.08 | 0.01 | 60 | 1016.6 |
| 20260906090003 | 65 | 290 | 0.0 | 3.0 | 0.00 | 0.08 | 0.01 | 55 | 1016.7 |
| 20260906085503 | 65 | 292 | 0.0 | 3.0 | 0.00 | 0.08 | 0.01 | 54 | 1016.6 |
| 20260906085003 | 64 | 313 | 1.0 | 5.0 | 0.00 | 0.08 | 0.01 | 54 | 1016.5 |
| 20260906084503 | 64 | 314 | 1.0 | 5.0 | 0.00 | 0.08 | 0.01 | 56 | 1016.5 |
| 20260906084003 | 64 | 316 | 0.0 | 4.0 | 0.00 | 0.08 | 0.01 | 53 | 1016.4 |
| 20260906083503 | 65 | 327 | 0.0 | 4.0 | 0.00 | 0.08 | 0.01 | 50 | 1016.5 |
| 20260906083003 | 64 | 304 | 0.0 | 7.0 | 0.00 | 0.08 | 0.01 | 47 | 1016.3 |
| 20260906082503 | 64 | 311 | 0.0 | 7.0 | 0.00 | 0.08 | 0.01 | 52 | 1016.2 |
| 20260906082024 | 64 | 329 | 0.0 | 4.0 | 0.00 | 0.08 | 0.01 | 52 | 1016.2 |
| 20260906081503 | 64 | 184 | 0.0 | 1.0 | 0.00 | 0.09 | 0.01 | 44 | 1016.1 |
| 20260906081003 | 64 | 289 | 0.0 | 3.0 | 0.00 | 0.09 | 0.01 | 39 | 1016.1 |
| 20260906080502 | 63 | 296 | 0.0 | 3.0 | 0.00 | 0.09 | 0.01 | 38 | 1016.1 |
| 20260906080003 | 63 | 311 | 0.0 | 6.0 | 0.00 | 0.09 | 0.01 | 37 | 1016.1 |
| 20260906075503 | 63 | 310 | 0.0 | 6.0 | 0.00 | 0.09 | 0.01 | 42 | 1016.0 |
| 20260906075003 | 62 | 285 | 0.0 | 2.0 | 0.00 | 0.09 | 0.01 | 21 | 1015.9 |
| 20260906074503 | 61 | 311 | 0.0 | 2.0 | 0.00 | 0.09 | 0.01 | 16 | 1015.8 |
| 20260906074003 | 60 | 314 | 0.0 | 3.0 | 0.00 | 0.09 | 0.01 | 5 | 1015.7 |
| 20260906073503 | 60 | 310 | 1.0 | 5.0 | 0.00 | 0.09 | 0.01 | 2 | 1015.7 |
| 20260906073003 | 59 | 307 | 0.0 | 5.0 | 0.00 | 0.09 | 0.01 | 1 | 1015.5 |
| 20260906072524 | 60 | 308 | 0.0 | 1.0 | 0.00 | 0.09 | 0.01 | 1 | 1015.5 |
| 20260906072003 | 59 | 331 | 0.0 | 3.0 | 0.00 | 0.09 | 0.01 | 1 | 1015.4 |
| 20260906071503 | 59 | 338 | 0.0 | 3.0 | 0.00 | 0.09 | 0.01 | 1 | 1015.4 |
| 20260906071003 | 58 | 323 | 0.0 | 1.0 | 0.00 | 0.09 | 0.01 | 1 | 1015.3 |
| 20260906070502 | 58 | 115 | 0.0 | 1.0 | 0.00 | 0.09 | 0.01 | 1 | 1015.4 |
| 20260906070003 | 57 | 343 | 0.0 | 2.0 | 0.00 | 0.09 | 0.01 | 1 | 1015.3 |
| 20260906065502 | 56 | 312 | 0.0 | 3.0 | 0.00 | 0.09 | 0.01 | 1 | 1015.3 |
| 20260906065023 | 56 | 314 | 0.0 | 3.0 | 0.00 | 0.09 | 0.01 | 1 | 1015.3 |
| 20260906064502 | 56 | 313 | 0.0 | 1.0 | 0.00 | 0.09 | 0.01 | 1 | 1015.2 |
| 20260906064003 | 55 | 313 | 0.0 | 1.0 | 0.00 | 0.09 | 0.01 | 1 | 1015.2 |
| 20260906063503 | 54 | 319 | 0.0 | 1.0 | 0.00 | 0.09 | 0.01 | 1 | 1015.1 |
| 20260906063024 | 54 | 69 | 0.0 | 1.0 | 0.00 | 0.09 | 0.01 | 1 | 1015.1 |
| 20260906062503 | 53 | 19 | 0.0 | 1.0 | 0.00 | 0.09 | 0.01 | 1 | 1015.1 |
| 20260906062003 | 53 | 0 | 0.0 | 0.0 | 0.00 | 0.09 | 0.01 | 1 | 1015.1 |
| 20260906061503 | 52 | 0 | 0.0 | 1.0 | 0.00 | 0.09 | 0.01 | 1 | 1015.0 |
| 20260906061024 | 52 | 0 | 0.0 | 1.0 | 0.00 | 0.09 | 0.01 | 1 | 1014.9 |
| 20260906060523 | 46 | 0 | 0.0 | 0.0 | 0.00 | 0.09 | 0.01 | 1 | 1014.9 |
| 20260906060002 | 46 | 0 | 0.0 | 0.0 | 0.00 | 0.09 | 0.01 | 1 | 1014.8 |
| 20260906055503 | 46 | 0 | 0.0 | 0.0 | 0.00 | 0.09 | 0.01 | 1 | 1014.7 |
| 20260906055003 | 46 | 0 | 0.0 | 0.0 | 0.00 | 0.09 | 0.01 | 1 | 1014.6 |
| 20260906054503 | 46 | 0 | 0.0 | 0.0 | 0.00 | 0.09 | 0.01 | 1 | 1014.7 |
| 20260906054003 | 46 | 0 | 0.0 | 0.0 | 0.00 | 0.09 | 0.01 | 1 | 1014.6 |
| 20260906053503 | 46 | 0 | 0.0 | 0.0 | 0.00 | 0.09 | 0.01 | 1 | 1014.6 |
| 20260906053003 | 46 | 0 | 0.0 | 0.0 | 0.00 | 0.09 | 0.01 | 1 | 1014.4 |
| 20260906052503 | 46 | 0 | 0.0 | 0.0 | 0.00 | 0.09 | 0.01 | 1 | 1014.4 |
| 20260906052024 | 46 | 0 | 0.0 | 0.0 | 0.00 | 0.09 | 0.01 | 1 | 1014.4 |
| 20260906051503 | 46 | 0 | 0.0 | 0.0 | 0.00 | 0.09 | 0.01 | 1 | 1014.3 |
| 20260906051003 | 46 | 0 | 0.0 | 0.0 | 0.00 | 0.09 | 0.01 | 1 | 1014.2 |
| 20260906050503 | 46 | 0 | 0.0 | 0.0 | 0.00 | 0.09 | 0.01 | 1 | 1014.2 |
| 20260906050002 | 46 | 0 | 0.0 | 0.0 | 0.01 | 0.09 | 0.01 | 1 | 1014.0 |
| 20260906045503 | 46 | 0 | 0.0 | 0.0 | 0.01 | 0.09 | 0.01 | 1 | 1013.9 |
| 20260906045003 | 46 | 0 | 0.0 | 0.0 | 0.01 | 0.09 | 0.01 | 1 | 1013.9 |
| 20260906044503 | 46 | 0 | 0.0 | 0.0 | 0.01 | 0.09 | 0.01 | 1 | 1013.9 |
| 20260906044024 | 46 | 0 | 0.0 | 0.0 | 0.01 | 0.09 | 0.01 | 1 | 1013.9 |
| 20260906043503 | 46 | 0 | 0.0 | 0.0 | 0.01 | 0.09 | 0.01 | 1 | 1013.8 |
| 20260906043003 | 46 | 0 | 0.0 | 0.0 | 0.01 | 0.09 | 0.01 | 1 | 1013.6 |
| 20260906042503 | 46 | 0 | 0.0 | 0.0 | 0.01 | 0.09 | 0.01 | 1 | 1013.7 |
| 20260906042003 | 46 | 0 | 0.0 | 0.0 | 0.01 | 0.09 | 0.01 | 1 | 1013.6 |
| 20260906041524 | 46 | 0 | 0.0 | 0.0 | 0.01 | 0.09 | 0.01 | 1 | 1013.4 |
| 20260906041003 | 46 | 0 | 0.0 | 0.0 | 0.01 | 0.09 | 0.01 | 1 | 1013.4 |
| 20260906040524 | 46 | 0 | 0.0 | 0.0 | 0.01 | 0.09 | 0.01 | 1 | 1013.3 |
| 20260906040003 | 46 | 0 | 0.0 | 0.0 | 0.00 | 0.08 | 0.00 | 1 | 1013.2 |
| 20260906035503 | 46 | 0 | 0.0 | 0.0 | 0.00 | 0.08 | 0.00 | 1 | 1013.2 |
| 20260906035003 | 46 | 0 | 0.0 | 0.0 | 0.00 | 0.08 | 0.00 | 1 | 1013.1 |
| 20260906034503 | 46 | 0 | 0.0 | 0.0 | 0.00 | 0.08 | 0.00 | 1 | 1013.1 |
| 20260906034024 | 46 | 0 | 0.0 | 0.0 | 0.00 | 0.08 | 0.00 | 1 | 1013.1 |
| 20260906033503 | 46 | 0 | 0.0 | 0.0 | 0.00 | 0.08 | 0.00 | 1 | 1013.0 |
| 20260906033003 | 46 | 0 | 0.0 | 0.0 | 0.00 | 0.08 | 0.00 | 1 | 1012.9 |
| 20260906032524 | 46 | 0 | 0.0 | 0.0 | 0.00 | 0.08 | 0.00 | 1 | 1012.9 |
| 20260906032003 | 46 | 0 | 0.0 | 0.0 | 0.00 | 0.08 | 0.00 | 1 | 1012.9 |
| 20260906031503 | 46 | 0 | 0.0 | 0.0 | 0.00 | 0.08 | 0.00 | 1 | 1012.8 |
| 20260906031003 | 46 | 0 | 0.0 | 0.0 | 0.00 | 0.08 | 0.00 | 1 | 1012.7 |
| 20260906030503 | 46 | 0 | 0.0 | 0.0 | 0.00 | 0.08 | 0.00 | 1 | 1012.7 |
| 20260906030003 | 46 | 0 | 0.0 | 0.0 | 0.00 | 0.08 | 0.00 | 1 | 1012.7 |
| 20260906025502 | 46 | 0 | 0.0 | 0.0 | 0.00 | 0.08 | 0.00 | 1 | 1012.5 |
| 20260906025023 | 46 | 0 | 0.0 | 0.0 | 0.00 | 0.08 | 0.00 | 1 | 1012.5 |
| 20260906024503 | 46 | 0 | 0.0 | 0.0 | 0.00 | 0.08 | 0.00 | 1 | 1012.5 |
| 20260906024003 | 46 | 0 | 0.0 | 0.0 | 0.00 | 0.08 | 0.00 | 1 | 1012.3 |
| 20260906023503 | 47 | 0 | 0.0 | 0.0 | 0.00 | 0.08 | 0.00 | 1 | 1012.3 |
| 20260906023003 | 46 | 0 | 0.0 | 0.0 | 0.00 | 0.08 | 0.00 | 1 | 1012.3 |
| 20260906022502 | 46 | 0 | 0.0 | 0.0 | 0.00 | 0.08 | 0.00 | 1 | 1012.3 |
| 20260906022003 | 46 | 0 | 0.0 | 0.0 | 0.00 | 0.08 | 0.00 | 1 | 1012.2 |
| 20260906021503 | 47 | 0 | 0.0 | 0.0 | 0.00 | 0.08 | 0.00 | 1 | 1012.2 |
| 20260906021003 | 47 | 0 | 0.0 | 0.0 | 0.00 | 0.08 | 0.00 | 1 | 1012.1 |
| 20260906020503 | 47 | 0 | 0.0 | 0.0 | 0.00 | 0.08 | 0.00 | 1 | 1012.1 |
| 20260906020003 | 47 | 0 | 0.0 | 0.0 | 0.00 | 0.08 | 0.00 | 1 | 1012.1 |
| 20260906015503 | 47 | 0 | 0.0 | 0.0 | 0.00 | 0.08 | 0.00 | 1 | 1012.0 |
| 20260906015002 | 47 | 0 | 0.0 | 0.0 | 0.00 | 0.08 | 0.00 | 1 | 1012.0 |
| 20260906014503 | 47 | 0 | 0.0 | 0.0 | 0.00 | 0.08 | 0.00 | 1 | 1012.1 |
| 20260906014002 | 47 | 0 | 0.0 | 0.0 | 0.00 | 0.08 | 0.00 | 1 | 1012.0 |
| 20260906013503 | 47 | 0 | 0.0 | 0.0 | 0.00 | 0.08 | 0.00 | 1 | 1011.9 |
| 20260906013024 | 47 | 0 | 0.0 | 0.0 | 0.00 | 0.09 | 0.00 | 1 | 1011.7 |
| 20260906012503 | 47 | 0 | 0.0 | 0.0 | 0.00 | 0.09 | 0.00 | 1 | 1011.8 |
| 20260906012003 | 47 | 0 | 0.0 | 0.0 | 0.00 | 0.09 | 0.00 | 1 | 1011.7 |
| 20260906011503 | 47 | 0 | 0.0 | 0.0 | 0.00 | 0.09 | 0.00 | 1 | 1011.7 |
| 20260906011003 | 47 | 0 | 0.0 | 0.0 | 0.00 | 0.09 | 0.00 | 1 | 1011.6 |
| 20260906010503 | 47 | 0 | 0.0 | 0.0 | 0.00 | 0.10 | 0.00 | 1 | 1011.5 |
| 20260906010024 | 47 | 0 | 0.0 | 0.0 | 0.00 | 0.11 | 0.00 | 1 | 1011.3 |
| 20260906005503 | 47 | 0 | 0.0 | 0.0 | 0.00 | 0.11 | 0.00 | 1 | 1011.3 |
| 20260906005002 | 47 | 0 | 0.0 | 0.0 | 0.00 | 0.11 | 0.00 | 1 | 1011.3 |
| 20260906004503 | 47 | 0 | 0.0 | 0.0 | 0.00 | 0.11 | 0.00 | 1 | 1011.2 |
| 20260906004003 | 47 | 0 | 0.0 | 0.0 | 0.00 | 0.11 | 0.00 | 1 | 1011.2 |
| 20260906003503 | 47 | 0 | 0.0 | 0.0 | 0.00 | 0.11 | 0.00 | 1 | 1011.1 |
| 20260906003003 | 47 | 0 | 0.0 | 0.0 | 0.00 | 0.12 | 0.00 | 1 | 1011.1 |
| 20260906002503 | 47 | 0 | 0.0 | 0.0 | 0.00 | 0.12 | 0.00 | 1 | 1011.1 |
| 20260906002003 | 47 | 0 | 0.0 | 0.0 | 0.00 | 0.12 | 0.00 | 1 | 1011.0 |
| 20260906001503 | 47 | 0 | 0.0 | 0.0 | 0.00 | 0.12 | 0.00 | 1 | 1011.0 |
| 20260906001003 | 47 | 0 | 0.0 | 0.0 | 0.00 | 0.12 | 0.00 | 1 | 1011.0 |
| 20260906000503 | 47 | 0 | 0.0 | 0.0 | 0.00 | 0.12 | 0.00 | 1 | 1011.0 |
| 20260906000003 | 47 | 0 | 0.0 | 0.0 | 0.00 | 0.12 | 0.00 | 1 | 1010.9 |
| 20260905235502 | 47 | 0 | 0.0 | 0.0 | 0.00 | 0.12 | 0.00 | 1 | 1010.9 |
| 20260905235003 | 47 | 0 | 0.0 | 0.0 | 0.00 | 0.12 | 0.00 | 1 | 1010.8 |
| 20260905234503 | 47 | 0 | 0.0 | 0.0 | 0.00 | 0.12 | 0.00 | 1 | 1010.7 |
| 20260905234003 | 48 | 0 | 0.0 | 0.0 | 0.00 | 0.12 | 0.00 | 1 | 1010.7 |
| 20260905233524 | 48 | 0 | 0.0 | 0.0 | 0.00 | 0.13 | 0.00 | 1 | 1010.6 |
| 20260905233003 | 48 | 0 | 0.0 | 0.0 | 0.00 | 0.13 | 0.00 | 1 | 1010.5 |
| 20260905232503 | 48 | 0 | 0.0 | 0.0 | 0.00 | 0.13 | 0.00 | 1 | 1010.5 |
| 20260905232003 | 48 | 0 | 0.0 | 0.0 | 0.00 | 0.13 | 0.00 | 1 | 1010.4 |
| 20260905231503 | 48 | 0 | 0.0 | 0.0 | 0.00 | 0.13 | 0.00 | 1 | 1010.4 |
| 20260905231003 | 48 | 0 | 0.0 | 0.0 | 0.00 | 0.13 | 0.00 | 1 | 1010.3 |
| 20260905230503 | 48 | 0 | 0.0 | 0.0 | 0.00 | 0.13 | 0.00 | 1 | 1010.3 |
| 20260905230003 | 48 | 0 | 0.0 | 0.0 | 0.00 | 0.13 | 0.00 | 1 | 1010.2 |
| 20260905225503 | 48 | 0 | 0.0 | 0.0 | 0.00 | 0.13 | 0.00 | 1 | 1010.1 |
| 20260905225002 | 48 | 0 | 0.0 | 0.0 | 0.00 | 0.13 | 0.00 | 1 | 1010.0 |
| 20260905224503 | 48 | 0 | 0.0 | 0.0 | 0.00 | 0.13 | 0.00 | 1 | 1010.0 |
| 20260905224003 | 48 | 0 | 0.0 | 0.0 | 0.00 | 0.13 | 0.00 | 1 | 1009.9 |
| 20260905223503 | 48 | 0 | 0.0 | 0.0 | 0.00 | 0.13 | 0.00 | 1 | 1009.8 |
| 20260905223003 | 48 | 0 | 0.0 | 0.0 | 0.00 | 0.13 | 0.00 | 1 | 1009.9 |
| 20260905222503 | 49 | 0 | 0.0 | 0.0 | 0.00 | 0.13 | 0.00 | 1 | 1009.8 |
| 20260905222024 | 49 | 0 | 0.0 | 0.0 | 0.00 | 0.13 | 0.00 | 1 | 1009.7 |
| 20260905221503 | 49 | 0 | 0.0 | 0.0 | 0.00 | 0.13 | 0.00 | 1 | 1009.7 |
| 20260905221003 | 49 | 0 | 0.0 | 0.0 | 0.00 | 0.13 | 0.00 | 1 | 1009.7 |
| 20260905220503 | 49 | 0 | 0.0 | 0.0 | 0.00 | 0.13 | 0.00 | 1 | 1009.6 |
| 20260905220026 | 49 | 0 | 0.0 | 0.0 | 0.00 | 0.13 | 0.00 | 1 | 1009.6 |
| 20260905215503 | 49 | 0 | 0.0 | 0.0 | 0.00 | 0.13 | 0.13 | 1 | 1009.4 |
| 20260905215003 | 49 | 0 | 0.0 | 0.0 | 0.00 | 0.13 | 0.13 | 1 | 1009.4 |
| 20260905214524 | 50 | 0 | 0.0 | 0.0 | 0.00 | 0.13 | 0.13 | 1 | 1009.2 |
| 20260905214003 | 50 | 0 | 0.0 | 0.0 | 0.00 | 0.13 | 0.13 | 1 | 1009.2 |
| 20260905213503 | 50 | 0 | 0.0 | 0.0 | 0.00 | 0.13 | 0.13 | 1 | 1009.1 |
| 20260905213024 | 50 | 0 | 0.0 | 0.0 | 0.00 | 0.13 | 0.13 | 1 | 1009.0 |
| 20260905212503 | 50 | 0 | 0.0 | 0.0 | 0.00 | 0.13 | 0.13 | 1 | 1008.9 |
| 20260905212003 | 50 | 0 | 0.0 | 0.0 | 0.00 | 0.13 | 0.13 | 1 | 1008.8 |
| 20260905211503 | 51 | 0 | 0.0 | 0.0 | 0.00 | 0.13 | 0.13 | 1 | 1008.7 |
| 20260905211003 | 51 | 0 | 0.0 | 0.0 | 0.00 | 0.13 | 0.13 | 1 | 1008.8 |
| 20260905210524 | 51 | 0 | 0.0 | 0.0 | 0.00 | 0.14 | 0.13 | 1 | 1008.6 |
| 20260905210003 | 51 | 0 | 0.0 | 0.0 | 0.00 | 0.14 | 0.13 | 1 | 1008.5 |
| 20260905205524 | 51 | 0 | 0.0 | 0.0 | 0.00 | 0.14 | 0.13 | 1 | 1008.4 |
| 20260905205003 | 52 | 0 | 0.0 | 0.0 | 0.00 | 0.14 | 0.13 | 1 | 1008.3 |
| 20260905204503 | 52 | 0 | 0.0 | 0.0 | 0.00 | 0.14 | 0.13 | 1 | 1008.3 |
| 20260905204024 | 52 | 0 | 0.0 | 0.0 | 0.00 | 0.14 | 0.13 | 1 | 1008.1 |
| 20260905203503 | 52 | 0 | 0.0 | 0.0 | 0.00 | 0.14 | 0.13 | 1 | 1008.1 |
| 20260905203003 | 52 | 0 | 0.0 | 0.0 | 0.00 | 0.15 | 0.13 | 1 | 1007.9 |
| 20260905202503 | 53 | 0 | 0.0 | 0.0 | 0.00 | 0.15 | 0.13 | 1 | 1007.9 |
| 20260905202003 | 53 | 0 | 0.0 | 0.0 | 0.00 | 0.15 | 0.13 | 1 | 1007.8 |
| 20260905201503 | 53 | 0 | 0.0 | 0.0 | 0.00 | 0.16 | 0.13 | 1 | 1007.7 |
| 20260905201003 | 53 | 352 | 0.0 | 1.0 | 0.00 | 0.16 | 0.13 | 1 | 1007.6 |
| 20260905200524 | 53 | 352 | 0.0 | 1.0 | 0.00 | 0.16 | 0.13 | 1 | 1007.5 |
| 20260905200004 | 53 | 0 | 0.0 | 0.0 | 0.00 | 0.17 | 0.13 | 1 | 1007.5 |
| 20260905195503 | 53 | 0 | 0.0 | 0.0 | 0.00 | 0.17 | 0.13 | 1 | 1007.4 |
| 20260905195024 | 53 | 0 | 0.0 | 0.0 | 0.00 | 0.17 | 0.13 | 1 | 1007.2 |
| 20260905194503 | 54 | 0 | 0.0 | 0.0 | 0.00 | 0.17 | 0.13 | 1 | 1007.1 |
| 20260905194024 | 54 | 0 | 0.0 | 0.0 | 0.00 | 0.17 | 0.13 | 1 | 1007.1 |
| 20260905193503 | 54 | 0 | 0.0 | 0.0 | 0.00 | 0.17 | 0.13 | 1 | 1007.0 |
| 20260905193002 | 54 | 0 | 0.0 | 0.0 | 0.00 | 0.17 | 0.13 | 1 | 1007.0 |
| 20260905192503 | 54 | 347 | 0.0 | 1.0 | 0.00 | 0.17 | 0.13 | 1 | 1006.8 |
| 20260905192024 | 55 | 348 | 0.0 | 1.0 | 0.00 | 0.17 | 0.13 | 1 | 1006.7 |
| 20260905191503 | 55 | 349 | 0.0 | 1.0 | 0.00 | 0.17 | 0.13 | 1 | 1006.6 |
| 20260905191003 | 55 | 0 | 0.0 | 1.0 | 0.00 | 0.17 | 0.13 | 1 | 1006.5 |
| 20260905190524 | 55 | 281 | 0.0 | 1.0 | 0.00 | 0.17 | 0.13 | 1 | 1006.4 |
| 20260905190003 | 55 | 276 | 0.0 | 1.0 | 0.00 | 0.17 | 0.13 | 1 | 1006.3 |
| 20260905185502 | 55 | 122 | 0.0 | 1.0 | 0.00 | 0.17 | 0.13 | 3 | 1006.3 |
| 20260905185024 | 55 | 0 | 0.0 | 0.0 | 0.00 | 0.17 | 0.13 | 3 | 1006.2 |
| 20260905184502 | 55 | 0 | 0.0 | 0.0 | 0.00 | 0.17 | 0.13 | 3 | 1006.0 |
| 20260905184002 | 56 | 0 | 0.0 | 0.0 | 0.00 | 0.17 | 0.13 | 4 | 1005.9 |
| 20260905183503 | 56 | 0 | 0.0 | 0.0 | 0.00 | 0.17 | 0.13 | 7 | 1005.8 |
| 20260905183003 | 56 | 0 | 0.0 | 0.0 | 0.00 | 0.17 | 0.13 | 9 | 1005.6 |
| 20260905182524 | 57 | 0 | 0.0 | 0.0 | 0.00 | 0.17 | 0.13 | 12 | 1005.4 |
| 20260905182003 | 57 | 0 | 0.0 | 0.0 | 0.00 | 0.17 | 0.13 | 17 | 1005.2 |
| 20260905181503 | 58 | 0 | 0.0 | 0.0 | 0.00 | 0.17 | 0.13 | 20 | 1005.2 |
| 20260905181003 | 58 | 0 | 0.0 | 0.0 | 0.00 | 0.17 | 0.13 | 24 | 1005.0 |
| 20260905180503 | 59 | 325 | 0.0 | 2.0 | 0.00 | 0.17 | 0.13 | 27 | 1004.9 |
| 20260905180003 | 59 | 325 | 0.0 | 2.0 | 0.00 | 0.17 | 0.13 | 31 | 1004.8 |
| 20260905175503 | 59 | 293 | 0.0 | 1.0 | 0.00 | 0.17 | 0.13 | 35 | 1004.6 |
| 20260905175003 | 60 | 294 | 0.0 | 1.0 | 0.00 | 0.17 | 0.13 | 36 | 1004.6 |
| 20260905174524 | 60 | 293 | 0.0 | 1.0 | 0.00 | 0.17 | 0.13 | 39 | 1004.4 |
| 20260905174003 | 60 | 303 | 0.0 | 4.0 | 0.00 | 0.17 | 0.13 | 40 | 1004.3 |
| 20260905173503 | 61 | 302 | 0.0 | 5.0 | 0.00 | 0.17 | 0.13 | 42 | 1004.1 |
| 20260905173003 | 61 | 303 | 0.0 | 5.0 | 0.00 | 0.17 | 0.13 | 39 | 1004.1 |
| 20260905172503 | 61 | 299 | 0.0 | 5.0 | 0.00 | 0.17 | 0.13 | 36 | 1004.0 |
| 20260905172003 | 61 | 300 | 0.0 | 5.0 | 0.00 | 0.17 | 0.13 | 38 | 1003.9 |
| 20260905171524 | 61 | 305 | 0.0 | 3.0 | 0.00 | 0.17 | 0.13 | 36 | 1003.8 |
| 20260905171003 | 61 | 308 | 0.0 | 3.0 | 0.00 | 0.17 | 0.13 | 29 | 1003.7 |
| 20260905170503 | 61 | 306 | 0.0 | 3.0 | 0.00 | 0.17 | 0.13 | 29 | 1003.7 |
| 20260905170003 | 61 | 313 | 0.0 | 3.0 | 0.00 | 0.17 | 0.13 | 25 | 1003.7 |
| 20260905165503 | 60 | 332 | 0.0 | 3.0 | 0.00 | 0.17 | 0.13 | 22 | 1003.5 |
| 20260905165023 | 60 | 304 | 0.0 | 5.0 | 0.00 | 0.17 | 0.13 | 21 | 1003.5 |
| 20260905164503 | 60 | 305 | 0.0 | 5.0 | 0.00 | 0.17 | 0.13 | 21 | 1003.3 |
| 20260905164024 | 61 | 307 | 1.0 | 9.0 | 0.00 | 0.17 | 0.13 | 22 | 1003.4 |
| 20260905163524 | 61 | 311 | 1.0 | 9.0 | 0.00 | 0.17 | 0.13 | 21 | 1003.4 |
| 20260905163003 | 61 | 310 | 1.0 | 5.0 | 0.00 | 0.17 | 0.13 | 23 | 1003.4 |
| 20260905162524 | 61 | 310 | 0.0 | 4.0 | 0.00 | 0.17 | 0.13 | 23 | 1003.4 |
| 20260905162003 | 61 | 306 | 1.0 | 8.0 | 0.00 | 0.17 | 0.13 | 25 | 1003.3 |
| 20260905161503 | 61 | 308 | 1.0 | 9.0 | 0.00 | 0.17 | 0.13 | 27 | 1003.3 |
| 20260905161003 | 61 | 313 | 1.0 | 9.0 | 0.00 | 0.17 | 0.13 | 22 | 1003.2 |
| 20260905160503 | 61 | 315 | 1.0 | 8.0 | 0.00 | 0.17 | 0.13 | 21 | 1003.1 |
| 20260905160003 | 61 | 312 | 1.0 | 7.0 | 0.00 | 0.17 | 0.13 | 12 | 1003.0 |
| 20260905155503 | 60 | 313 | 1.0 | 9.0 | 0.00 | 0.17 | 0.13 | 12 | 1003.0 |
| 20260905155023 | 60 | 322 | 1.0 | 9.0 | 0.00 | 0.17 | 0.13 | 14 | 1003.0 |
| 20260905154503 | 60 | 338 | 0.0 | 4.0 | 0.00 | 0.17 | 0.13 | 7 | 1003.0 |
| 20260905154002 | 60 | 309 | 1.0 | 6.0 | 0.00 | 0.17 | 0.13 | 12 | 1002.9 |
| 20260905153523 | 60 | 308 | 1.0 | 6.0 | 0.00 | 0.17 | 0.13 | 16 | 1002.9 |
| 20260905153003 | 60 | 306 | 1.0 | 7.0 | 0.00 | 0.17 | 0.13 | 17 | 1002.8 |
| 20260905152524 | 60 | 307 | 1.0 | 12.0 | 0.00 | 0.17 | 0.13 | 21 | 1002.7 |
| 20260905152003 | 60 | 319 | 1.0 | 12.0 | 0.00 | 0.17 | 0.13 | 19 | 1002.6 |
| 20260905151503 | 60 | 311 | 1.0 | 11.0 | 0.00 | 0.17 | 0.13 | 1 | 1002.5 |
| 20260905151003 | 59 | 297 | 0.0 | 4.0 | 0.00 | 0.17 | 0.13 | 1 | 1002.5 |
| 20260905150503 | 59 | 316 | 0.0 | 6.0 | 0.00 | 0.17 | 0.13 | 1 | 1002.5 |
| 20260905150024 | 59 | 306 | 1.0 | 6.0 | 0.00 | 0.17 | 0.13 | 1 | 1002.5 |
| 20260905145503 | 58 | 280 | 1.0 | 5.0 | 0.00 | 0.17 | 0.13 | 1 | 1002.5 |
| 20260905145003 | 58 | 324 | 0.0 | 4.0 | 0.04 | 0.17 | 0.13 | 1 | 1002.6 |
| 20260905144524 | 59 | 310 | 1.0 | 9.0 | 0.06 | 0.17 | 0.13 | 1 | 1002.5 |
| 20260905144024 | 59 | 304 | 1.0 | 9.0 | 0.07 | 0.17 | 0.13 | 1 | 1002.5 |
| 20260905143524 | 59 | 305 | 1.0 | 9.0 | 0.07 | 0.17 | 0.13 | 1 | 1002.5 |
| 20260905143003 | 59 | 309 | 1.0 | 9.0 | 0.07 | 0.17 | 0.13 | 1 | 1002.4 |
| 20260905142502 | 58 | 303 | 0.0 | 6.0 | 0.07 | 0.17 | 0.13 | 1 | 1002.5 |
| 20260905142003 | 58 | 312 | 0.0 | 6.0 | 0.07 | 0.17 | 0.13 | 1 | 1002.4 |
| 20260905141503 | 57 | 322 | 0.0 | 6.0 | 0.07 | 0.17 | 0.13 | 1 | 1002.4 |
| 20260905141003 | 57 | 310 | 1.0 | 6.0 | 0.07 | 0.17 | 0.13 | 1 | 1002.5 |
| 20260905140503 | 58 | 301 | 1.0 | 6.0 | 0.07 | 0.17 | 0.13 | 1 | 1002.5 |
| 20260905140004 | 58 | 294 | 1.0 | 7.0 | 0.07 | 0.17 | 0.13 | 1 | 1002.4 |
| 20260905135503 | 60 | 289 | 1.0 | 7.0 | 0.07 | 0.17 | 0.13 | 17 | 1002.3 |
| 20260905135002 | 62 | 277 | 1.0 | 9.0 | 0.03 | 0.13 | 0.09 | 32 | 1002.5 |
| 20260905134502 | 63 | 290 | 2.0 | 9.0 | 0.01 | 0.10 | 0.06 | 43 | 1002.3 |
| 20260905134003 | 63 | 264 | 2.0 | 10.0 | 0.00 | 0.09 | 0.06 | 53 | 1002.3 |
| 20260905133503 | 63 | 278 | 2.0 | 10.0 | 0.00 | 0.09 | 0.06 | 54 | 1002.2 |
| 20260905133003 | 62 | 311 | 2.0 | 17.0 | 0.00 | 0.09 | 0.06 | 56 | 1002.3 |
| 20260905132503 | 62 | 308 | 1.0 | 17.0 | 0.00 | 0.09 | 0.06 | 52 | 1002.2 |
| 20260905132003 | 62 | 268 | 1.0 | 7.0 | 0.00 | 0.09 | 0.06 | 53 | 1002.1 |
| 20260905131503 | 62 | 294 | 2.0 | 9.0 | 0.00 | 0.09 | 0.06 | 50 | 1002.2 |
| 20260905131024 | 62 | 293 | 2.0 | 10.0 | 0.00 | 0.09 | 0.06 | 48 | 1002.2 |
| 20260905130503 | 61 | 302 | 2.0 | 13.0 | 0.00 | 0.09 | 0.06 | 40 | 1002.0 |
| 20260905130003 | 61 | 313 | 2.0 | 13.0 | 0.00 | 0.09 | 0.06 | 47 | 1002.1 |
| 20260905125503 | 62 | 315 | 2.0 | 12.0 | 0.00 | 0.09 | 0.06 | 49 | 1002.0 |
| 20260905125003 | 62 | 313 | 2.0 | 12.0 | 0.00 | 0.09 | 0.06 | 50 | 1002.2 |
| 20260905124502 | 62 | 304 | 2.0 | 10.0 | 0.00 | 0.09 | 0.06 | 53 | 1002.0 |
| 20260905124003 | 63 | 296 | 2.0 | 11.0 | 0.00 | 0.09 | 0.06 | 52 | 1001.9 |
| 20260905123524 | 63 | 301 | 2.0 | 11.0 | 0.00 | 0.09 | 0.06 | 43 | 1002.0 |